This demonstration page uses our WeatherBlox Daily Observations layout. Learn more.

Left ArrowRight Arrow

44.8408, -93.29828

Hourly Observations for June 3, 2015

Temp ( °F °C ) Dew Point ( °F °C ) Humidity (%) Winds ( mph kmh ) Pressure ( in mb ) Visibility ( mi km ) Precip ( " mm )
12:53 am 00:53 Mostly Cloudy 65 18.3 53 11.7 66 66 SSE 8 13 29.90 1013 10 16 0.00 0.00
1:53 am 01:53 Cloudy 66 18.9 53 11.7 63 63 S 13 20 29.88 1012 10 16 0.00 0.00
2:53 am 02:53 Cloudy 66 18.9 54 12.2 65 65 S 12 19 29.88 1012 10 16 0.00 0.00
3:53 am 03:53 Cloudy 65 18.3 54 12.2 68 68 S 13 20 29.88 1012 10 16 0.00 0.00
4:53 am 04:53 Cloudy 65 18.3 55 12.8 70 70 S 10 17 29.88 1012 10 16 0.00 0.00
5:53 am 05:53 Cloudy 64 17.8 55 12.8 73 73 SSE 12 19 29.87 1011 10 16 0.00 0.00
6:11 am 06:11 Cloudy 64 17.8 55 12.8 73 73 SSE 14 22 29.88 1012 10 16 0.00 0.00
6:53 am 06:53 Cloudy 64 17.8 56 13.3 75 75 SSE 13 20 29.86 1011 10 16 0.00 0.00
6:58 am 06:58 Cloudy with Nearby Thunderstorms 64 18 55 13 73 73 S 9 15 29.88 1012 10 16 0.00 0.00
7:15 am 07:15 Cloudy 64 17.8 56 13.3 75 75 SSE 12 19 29.85 1011 10 16 0.00 0.00
7:32 am 07:32 Cloudy with Nearby Thunderstorms 63 17 57 14 83 83 SE 9 15 29.88 1012 10 16 0.00 0.00
7:40 am 07:40 Cloudy with Thunderstorms 62 16.7 57 13.9 84 84 SE 7 11 29.85 1011 10 16 0.00 0.00
7:53 am 07:53 Cloudy with Thunderstorms 62 16.7 57 13.9 84 84 SE 8 13 29.85 1011 10 16 0.00 0.00
8:00 am 08:00 Cloudy 63 17 57 14 83 83 SE 8 13 29.85 1011 10 16 0.00 0.00
8:53 am 08:53 Cloudy with Light Rain 62 16.7 59 15 90 90 ESE 9 15 29.85 1011 9 14 0.02 0.51
9:01 am 09:01 Cloudy with Light Rain 63 17.2 59 15 87 87 ESE 10 17 29.85 1011 9 14 0.00 0.03
9:53 am 09:53 Cloudy 65 18.3 59 15 81 81 SSE 10 17 29.84 1011 10 16 0.00 0.03
10:34 am 10:34 Cloudy 64 18 59 15 83 83 SE 12 19 29.83 1010 10 16 0.00 0.00
10:53 am 10:53 Cloudy 65 18.3 58 14.4 78 78 SSE 8 13 29.83 1010 10 16 0.00 0.00
11:41 am 11:41 Cloudy with Nearby Thunderstorms 67 19.4 59 15 76 76 S 9 15 29.85 1011 9 14 0.00 0.00
11:53 am 11:53 Cloudy with Nearby Thunderstorms 67 19.4 58 14.4 73 73 SSW 8 13 29.85 1011 9 14 0.00 0.00
12:08 pm 12:08 Cloudy with Thunderstorms 66 19 61 16 83 83 S 7 11 29.88 1012 3 4 0.00 0.00
12:12 pm 12:12 Cloudy with Strong Thunderstorms 66 19 61 16 83 83 SSW 9 15 29.88 1012 2 3 0.00 0.00
12:24 pm 12:24 Cloudy with Strong Thunderstorms 64 17.8 61 16.1 90 90 SW 6 9 29.88 1012 2 2 0.07 1.78
12:27 pm 12:27 Cloudy with Strong Thunderstorms 64 17.8 61 16.1 90 90 SSW 7 11 29.88 1012 1 1 0.09 2.29
12:38 pm 12:38 Cloudy with Thunderstorms 64 17.8 61 16.1 90 90 SSE 10 17 29.88 1012 2 2 0.12 3.05
12:47 pm 12:47 Cloudy with Thunderstorms 64 18 61 16 88 88 SSE 10 17 29.91 1013 1 2 0.15 3.81
12:53 pm 12:53 Cloudy with Thunderstorms 63 17.2 61 16.1 93 93 SSE 9 15 29.89 1012 1 1 0.17 4.32
12:56 pm 12:56 Cloudy with Thunderstorms 63 17 61 16 94 94 S 7 11 29.88 1012 1 1 0.00 0.00
12:59 pm 12:59 Cloudy with Thunderstorms 62 16.7 61 16.1 96 96 S 7 11 29.91 1013 1 1 0.24 6.10
1:04 pm 13:04 Cloudy with Thunderstorms 63 17.2 61 16.1 93 93 S 5 7 29.91 1013 2 2 0.29 7.37
1:07 pm 13:07 Cloudy with Thunderstorms 63 17.2 61 16.1 93 93 S 3 6 29.91 1013 2 3 0.29 7.37
1:18 pm 13:18 Cloudy with Thunderstorms 63 17.2 61 16.1 93 93 S 9 15 29.91 1013 6 10 0.29 7.37
1:29 pm 13:29 Cloudy with Nearby Thunderstorms 64 17.8 60 15.6 87 87 S 5 7 29.88 1012 6 10 0.29 7.37
1:49 pm 13:49 Cloudy 66 19 61 16 83 83 VRB 3 6 29.88 1012 7 11 0.29 7.37
1:53 pm 13:53 Cloudy 65 18.3 60 15.6 84 84 VRB 3 6 29.87 1012 8 13 0.29 7.37
2:53 pm 14:53 Cloudy with Light Rain 65 18.3 60 15.6 84 84 SE 6 9 29.86 1011 6 10 0.00 0.03
3:53 pm 15:53 Cloudy with Mist and Fog 65 18.3 62 16.7 90 90 E 9 15 29.85 1011 5 8 0.02 0.51
4:01 pm 16:01 Cloudy with Light Rain 65 18.3 62 16.7 90 90 ESE 9 15 29.85 1011 5 8 0.00 0.03
4:53 pm 16:53 Cloudy with Light Rain 66 18.9 62 16.7 87 87 E 7 11 29.83 1010 7 11 0.00 0.03
5:22 pm 17:22 Cloudy 66 18.9 63 17.2 90 90 E 9 15 29.83 1010 8 13 0.00 0.03
5:53 pm 17:53 Cloudy 66 18.9 62 16.7 87 87 E 9 15 29.82 1010 8 13 0.00 0.03
6:25 pm 18:25 Cloudy with Rain 65 18.3 63 17.2 93 93 WNW 9 15 29.83 1010 3 5 0.02 0.51
6:28 pm 18:28 Cloudy with Heavy Rain 64 18 63 17 94 94 W 8 13 29.83 1010 2 3 0.00 0.00
6:33 pm 18:33 Cloudy with Heavy Rain 64 17.8 63 17.2 96 96 VRB 3 6 29.83 1010 1 2 0.12 3.05
6:36 pm 18:36 Cloudy with Rain 64 18 63 17 94 94 WNW 6 9 29.83 1010 1 1 0.00 0.00
6:38 pm 18:38 Cloudy with Rain 64 17.8 63 17.2 96 96 WNW 7 11 29.83 1010 3 4 0.20 5.08
6:53 pm 18:53 Cloudy with Light Rain 65 18.3 63 17.2 93 93 NW 6 9 29.83 1010 3 5 0.22 5.59
7:05 pm 19:05 Cloudy with Light Rain 65 18.3 64 17.8 97 97 NW 6 9 29.83 1010 5 8 0.00 0.03
7:11 pm 19:11 Cloudy with Light Rain 65 18.3 64 17.8 97 97 WNW 6 9 29.83 1010 2 3 0.01 0.25
7:30 pm 19:30 Cloudy with Light Rain 64 17.8 63 17.2 96 96 WNW 8 13 29.83 1010 2 3 0.02 0.51
7:32 pm 19:32 Cloudy with Light Rain 64 17.8 63 17.2 96 96 WNW 9 15 29.83 1010 3 5 0.02 0.51
7:53 pm 19:53 Cloudy with Light Rain 64 17.8 63 17.2 96 96 WNW 13 20 29.84 1011 3 5 0.02 0.51
7:56 pm 19:56 Cloudy with Light Rain 64 18 63 17 94 94 WNW 12 19 29.85 1011 3 4 0.00 0.00
8:10 pm 20:10 Cloudy with Mist and Fog 64 18 63 17 94 94 NW 10 17 29.85 1011 4 6 0.00 0.00
8:44 pm 20:44 Cloudy 64 18 63 17 94 94 NW 8 13 29.85 1011 9 14 0.00 0.00
8:53 pm 20:53 Mostly Cloudy 64 17.8 62 16.7 93 93 NW 6 9 29.85 1011 9 14 0.01 0.25
9:53 pm 21:53 Partly Cloudy 62 16.7 61 16.1 96 96 W 6 9 29.86 1011 8 13 0.00 0.00
10:13 pm 22:13 Mostly Clear 62 16.7 61 16.1 96 96 W 6 9 29.88 1012 7 11 0.00 0.00
10:15 pm 22:15 Mostly Cloudy 62 16.7 61 16.1 96 96 WNW 6 9 29.88 1012 7 11 0.00 0.00
10:42 pm 22:42 Mostly Cloudy 63 17.2 61 16.1 93 93 WNW 7 11 29.88 1012 8 13 0.00 0.00
10:53 pm 22:53 Cloudy 63 17.2 62 16.7 97 97 WNW 7 11 29.87 1012 7 11 0.00 0.00
11:53 pm 23:53 Cloudy 63 17.2 61 16.1 93 93 NW 7 11 29.88 1012 8 13 0.00 0.00

Powered by AerisWeather